Location: Maiden
(35.5760°N, 81.2120°W)
Time: 14:45:01
(UTC-05:00)

Daily predictions for brighter satellites

Satellite Brightness Start Highest point End
(mag) Time Altitude Azimuth Time Altitude Azimuth Time Altitude Azimuth
Cosmos 1346 2.7 17:42:04 10° SSW 17:44:20 67° W 17:46:37 10° N
Landsat 4 4.3 17:41:20 10° NNE 17:44:51 36° E 17:48:21 10° SSE
USA 116 4.3 17:40:31 10° NNE 17:44:56 46° E 17:48:49 10° S
COSMOS 2455 3.1 17:39:13 10° S 17:45:01 54° ESE 17:50:52 10° NE
Cosmos 1437 3.3 17:44:24 10° SSE 17:47:19 35° E 17:50:16 10° NNE
AQUARIUS 4.2 17:44:17 10° SSE 17:48:42 61° ENE 17:53:09 10° N
CSL-04 Rocket 3.7 17:50:39 10° SSE 17:55:55 84° WSW 18:01:15 10° NNW
Cosmos 2233 Rocket 4.1 17:52:42 10° SSE 17:58:48 54° E 18:04:51 10° NNE
Cosmos 371 Rocket 3.2 17:55:32 10° NNW 18:00:20 75° ENE 18:05:08 10° SSE
Ariane Rocket 3.2 17:58:48 10° S 18:03:53 79° WSW 18:08:59 10° NNW
CZ-4 R/B 1.2 18:00:04 10° SSE 18:03:57 69° ENE 18:07:49 10° N
Cosmos 2242 Rocket 3.8 18:00:28 10° S 18:05:01 77° W 18:09:36 10° N
Cosmos 2208 Rocket 4.1 18:02:05 10° NNW 18:07:18 84° WSW 18:12:34 10° SSE
Cosmos 1340 3.5 18:05:38 10° SSW 18:09:18 52° W 18:13:00 10° N
COSMOS 2406 3.2 18:08:01 10° NNW 18:13:48 78° ENE 18:19:29 10° SSE
Cosmos 1486 Rocket 4.3 18:09:21 10° S 18:14:17 45° ESE 18:19:14 10° NNE
Sich 1 Rocket 4.4 18:10:52 10° NNE 18:14:40 28° ENE 18:18:28 10° SE
SKYMED 2 3.7 18:10:31 10° NNE 18:14:48 54° E 18:19:02 10° S
SPOT 3 Rocket 4.0 18:10:24 10° SE 18:15:10 37° ENE 18:19:57 10° N
Cosmos 1908 Rocket 4.1 18:12:53 10° NNE 18:16:53 35° E 18:20:51 10° SE
MOS 1 4.4 18:13:23 10° SSE 18:18:53 53° ENE 18:24:25 10° N
METEOR-M 4.1 18:14:28 10° SSE 18:19:42 59° ENE 18:24:56 10° N
Cosmos 841 Rocket 4.2 18:16:34 10° N 18:21:15 32° ENE 18:25:55 10° SE
Cosmos 1733 Rocket 3.3 18:17:48 10° N 18:22:14 75° W 18:26:40 10° S
Meteor 1-26 Rocket 4.2 18:16:43 10° S 18:22:21 88° W 18:27:55 10° N
CZ-2C R/B 4.3 18:18:46 10° N 18:23:09 59° WNW 18:27:35 10° SSW
Cosmos 1844 Rocket 3.9 18:18:30 10° SW 18:23:47 41° WNW 18:29:05 10° N
Cosmos 972 Rocket 3.8 18:19:44 10° NNW 18:24:41 85° ENE 18:29:36 10° SSE
USA 234 3.5 18:18:18 10° NE 18:24:49 70° NW 18:31:18 10° SW
Chunghua 1 4.5 18:21:30 10° W 18:25:11 80° S 18:27:06 27° E
ERS-2 2.0 18:22:58 10° SSE 18:26:39 75° ENE 18:30:19 10° N
Cosmos 1862 Rocket 4.3 18:22:33 10° SSW 18:26:52 56° W 18:31:15 10° N
ALOS 2.3 18:33:49 10° SSE 18:38:20 52° ENE 18:42:52 10° N
Cosmos 2297 4.2 18:35:44 10° S 18:40:54 37° ESE 18:42:54 28° ENE
Cosmos 972 4.3 18:38:02 10° N 18:43:02 61° ENE 18:47:49 10° SSE
Cosmos 1072 Rocket 4.4 18:41:03 10° S 18:47:06 62° E 18:53:16 10° NNE
FENGYUN 3A 3.5 18:44:40 10° SSE 18:50:01 68° ENE 18:55:25 10° N
Cosmos 2278 Rocket 2.4 18:44:34 10° SSW 18:50:12 70° WNW 18:55:54 10° NNE
Cosmos 2034 Rocket 4.2 18:47:07 10° SSE 18:53:06 45° E 18:59:06 10° NNE
Cosmos 1833 Rocket 3.7 18:48:47 10° N 18:52:29 27° NE 18:52:29 27° NE
Thor Agena Rocket 3.7 18:53:15 38° ENE 18:54:30 45° E 18:59:23 10° S
Okean 1-7 2.9 18:53:57 10° S 18:58:17 77° E 19:00:27 29° NNE
Cosmos 1782 2.8 18:56:00 10° S 19:00:01 80° W 19:02:24 24° N
Cosmos 1782 Rocket 3.4 18:56:34 10° N 19:00:54 65° E 19:05:12 10° SSE
Cosmos 2221 Rocket 3.4 18:58:11 10° S 19:02:34 77° E 19:04:06 40° NNE
YAOGAN 1 4.3 18:58:53 10° SSW 19:02:47 33° W 19:06:42 10° NNW
COSMO-SKYMED 1 3.9 18:58:45 10° N 19:02:47 39° WNW 19:06:49 10° SW
Meteor 2-6 Rocket 4.0 19:01:00 10° S 19:06:22 76° E 19:10:24 19° NNE
Cosmos 1606 3.3 19:05:49 10° SSW 19:09:31 54° W 19:11:16 28° NNW
CENTAUR R/B 4.4 19:09:32 10° W 19:14:19 23° NW 19:19:36 10° N
FengYun 1-2 T 4.0 19:15:39 10° SSE 19:21:06 71° ENE 19:26:37 10° N
Cosmos 1464 Rocket 4.1 19:17:58 10° SSW 19:24:03 72° W 19:30:12 10° N
Meteor 1-27 Rocket 3.7 19:18:36 10° S 19:24:23 69° E 19:24:34 68° E
Cosmos 2082 Rocket 3.0 19:27:32 10° NNW 19:31:03 37° N 19:31:03 37° N
Cosmos 1503 Rocket 4.4 19:28:44 10° SSW 19:33:58 61° WNW 19:35:16 46° NNW
CZ-4C R/B 4.1 19:37:51 10° NNW 19:41:18 25° N 19:41:18 25° N
Atlas 2A Centaur Rocket 4.4 20:08:24 10° WSW 20:14:11 26° SW 20:14:11 26° SW
